Location: Unspecified
(47.1121°N, 116.3927°W)
Time: 01:50:55
(UTC-08:00)

Resurs 1-4 Rocket - Pass Details

Date: 13 October 2019
Orbit: 800 x 813 km, 98.6° (Epoch: 12 November)

Event Time Altitude Azimuth Distance (km) Brightness Sun altitude
Rises 04:03:19 0° 3° (N) 3,344 5.6 -30.4°
Reaches altitude 10° 04:06:13 10° 347° (NNW) 2,410 4.7 -30.0°
Enters shadow 04:06:58 13° 341° (NNW) 2,210 4.4 -29.8°
